Ely, MN

6:27 AM CDT on May 27, 2017 (GMT -0500)
Ely Municipal

Weather History for KELO - October, 2014

Change the Weather History Date:

Thursday, October 30, 2014

  Actual Average Record
Temperature  
Mean Temperature 32 °F -  
Max Temperature 39 °F 42 °F 66 °F (2007)
Min Temperature 24 °F 28 °F 15 °F (1996)
Degree Days  
Heating Degree Days 34    
Moisture  
Dew Point 30 °F    
Average Humidity 91    
Maximum Humidity 100    
Minimum Humidity 74    
Precipitation  
Precipitation 0.05 in - - ()
Sea Level Pressure  
Sea Level Pressure 30.10 in    
Wind  
Wind Speed 6 mph (NW)    
Max Wind Speed 20 mph    
Max Gust Speed 32 mph    
Visibility 8 miles    
Events Rain , Snow    
Averages and records for this station are not official NWS values.
T = Trace of Precipitation, MM = Missing Value Source: NWS Daily Summary

Daily Weather History Graph

Daily Weather History Graph

Search for Another Location

Airport or City:

Trip Planner

Search our weather history database for the weather conditions in past years. The results will help you decide how hot, cold, wet, or windy it might be!

Date:

Astronomy

Oct. 30, 2014 Rise Set
Actual Time 7:48 AM CDT 5:52 PM CDT
Civil Twilight 7:16 AM CDT 6:24 PM CDT
Nautical Twilight 6:40 AM CDT 7:00 PM CDT
Astronomical Twilight 6:04 AM CDT 7:36 PM CDT
Moon 1:55 PM CDT (10/30) No Moon Set
Length of Visible Light 11h 07m
Length of Day
10h 03m
Waxing Crescent, 45% of the Moon is Illuminated
Oct 30
Waxing Crescent
Oct 30
First Quarter
Nov 6
Full
Nov 14
Last Quarter
Nov 22
New

Hourly Weather History & Observations

Time (CDT) Temp. Windchill Dew Point Humidity Pressure Visibility Wind Dir Wind Speed Gust Speed Precip Events Conditions
12:12 AM 35.6 °F 31.7 °F 33.8 °F 93% 30.03 in 10.0 mi West 4.6 mph - N/A   Overcast
12:33 AM 35.6 °F 30.7 °F 33.8 °F 93% 30.03 in 10.0 mi West 5.8 mph - N/A   Overcast
12:53 AM 33.8 °F 29.6 °F 33.8 °F 100% 30.02 in 10.0 mi West 4.6 mph - N/A   Overcast
1:13 AM 33.8 °F - 33.8 °F 100% 30.02 in 10.0 mi Calm Calm - N/A   Overcast
1:33 AM 33.8 °F 29.6 °F 33.8 °F 100% 30.03 in 10.0 mi West 4.6 mph - N/A   Overcast
1:53 AM 33.8 °F 29.6 °F 33.8 °F 100% 30.03 in 10.0 mi West 4.6 mph - N/A   Overcast
2:13 AM 33.8 °F 29.6 °F 33.8 °F 100% 30.03 in 10.0 mi West 4.6 mph - N/A   Overcast
2:32 AM 33.8 °F 29.6 °F 32.0 °F 93% 30.02 in 10.0 mi WSW 4.6 mph - N/A   Overcast
2:53 AM 33.8 °F 30.8 °F 32.0 °F 93% 30.03 in 10.0 mi West 3.5 mph - N/A   Overcast
3:13 AM 33.8 °F 30.8 °F 32.0 °F 93% 30.02 in 10.0 mi West 3.5 mph - N/A   Overcast
3:33 AM 33.8 °F 30.8 °F 32.0 °F 93% 30.02 in 10.0 mi West 3.5 mph - N/A   Overcast
3:53 AM 33.8 °F 30.8 °F 33.8 °F 100% 30.02 in 10.0 mi WSW 3.5 mph - N/A   Overcast
4:13 AM 33.8 °F 28.6 °F 32.0 °F 93% 30.02 in 10.0 mi West 5.8 mph - N/A   Overcast
4:33 AM 33.8 °F 30.8 °F 33.8 °F 100% 30.02 in 10.0 mi West 3.5 mph - N/A   Overcast
4:53 AM 33.8 °F 30.8 °F 33.8 °F 100% 30.02 in 10.0 mi WSW 3.5 mph - N/A   Overcast
5:13 AM 33.8 °F 30.8 °F 33.8 °F 100% 30.03 in 3.0 mi West 3.5 mph - N/A   Overcast
5:32 AM 33.8 °F - 33.8 °F 100% 30.02 in 4.0 mi Calm Calm - N/A   Overcast
5:53 AM 33.8 °F 29.6 °F 33.8 °F 100% 30.03 in 10.0 mi West 4.6 mph - N/A   Overcast
6:13 AM 33.8 °F 30.8 °F 33.8 °F 100% 30.03 in 10.0 mi WSW 3.5 mph - N/A   Overcast
6:32 AM 33.8 °F - 33.8 °F 100% 30.02 in 10.0 mi Calm Calm - N/A   Overcast
6:53 AM 33.8 °F - 33.8 °F 100% 30.03 in 10.0 mi Calm Calm - N/A   Overcast
7:13 AM 33.8 °F - 32.0 °F 93% 30.03 in 10.0 mi Calm Calm - N/A   Overcast
7:32 AM 33.8 °F - 32.0 °F 93% 30.03 in 10.0 mi Calm Calm - N/A   Overcast
7:53 AM 33.8 °F - 32.0 °F 93% 30.03 in 10.0 mi Calm Calm - N/A   Mostly Cloudy
8:13 AM 33.8 °F - 32.0 °F 93% 30.04 in 10.0 mi Calm Calm - N/A   Overcast
8:32 AM 33.8 °F - 32.0 °F 93% 30.04 in 10.0 mi Calm Calm - N/A   Overcast
8:53 AM 33.8 °F 30.8 °F 33.8 °F 100% 30.05 in 10.0 mi WNW 3.5 mph - N/A   Mostly Cloudy
9:13 AM 35.6 °F 29.9 °F 33.8 °F 93% 30.05 in 10.0 mi WNW 6.9 mph - N/A   Mostly Cloudy
9:32 AM 35.6 °F 30.7 °F 33.8 °F 93% 30.05 in 10.0 mi WNW 5.8 mph - N/A   Light Drizzle
9:53 AM 35.6 °F 32.8 °F 33.8 °F 93% 30.05 in 10.0 mi WNW 3.5 mph - N/A Rain Light Rain
10:13 AM 35.6 °F 31.7 °F 33.8 °F 93% 30.05 in 10.0 mi NW 4.6 mph - N/A   Overcast
10:33 AM 35.6 °F 29.9 °F 33.8 °F 93% 30.05 in 10.0 mi WNW 6.9 mph - N/A   Overcast
10:53 AM 35.6 °F 30.7 °F 33.8 °F 93% 30.06 in 10.0 mi NW 5.8 mph - N/A   Overcast
11:13 AM 35.6 °F 32.8 °F 33.8 °F 93% 30.06 in 10.0 mi NW 3.5 mph - N/A   Overcast
11:33 AM 37.4 °F 32.8 °F 33.8 °F 87% 30.06 in 10.0 mi NW 5.8 mph - N/A   Overcast
11:53 AM 37.4 °F 30.8 °F 33.8 °F 87% 30.07 in 10.0 mi NW 9.2 mph - N/A   Overcast
12:13 PM 37.4 °F 32.8 °F 33.8 °F 87% 30.06 in 10.0 mi WNW 5.8 mph - N/A   Overcast
12:33 PM 37.4 °F 31.4 °F 33.8 °F 87% 30.06 in 10.0 mi NW 8.1 mph - N/A   Overcast
12:52 PM 37.4 °F 32.1 °F 33.8 °F 87% 30.06 in 7.0 mi WNW 6.9 mph - N/A   Overcast
1:13 PM 39.2 °F 31.6 °F 35.6 °F 87% 30.06 in 10.0 mi WNW 12.7 mph - N/A   Overcast
1:32 PM 35.6 °F 31.7 °F 33.8 °F 93% 30.06 in 7.0 mi NW 4.6 mph - 0.01 in Rain Light Rain
1:53 PM 39.2 °F 33.6 °F 35.6 °F 87% 30.05 in 10.0 mi NW 8.1 mph - 0.01 in   Mostly Cloudy
2:13 PM 37.4 °F 31.4 °F 33.8 °F 87% 30.05 in 7.0 mi NNW 8.1 mph 16.1 mph N/A Rain Light Rain
2:32 PM 35.6 °F 29.2 °F 33.8 °F 93% 30.05 in 7.0 mi WNW 8.1 mph - 0.01 in Rain Light Rain
2:53 PM 35.6 °F 27.1 °F 32.0 °F 87% 30.07 in 1.8 mi NNW 12.7 mph 20.7 mph 0.01 in Rain Rain
3:13 PM 33.8 °F 25.8 °F 33.8 °F 100% 30.07 in 10.0 mi NW 10.4 mph - 0.01 in   Overcast
3:32 PM 35.6 °F 28.6 °F 33.8 °F 93% 30.07 in 10.0 mi NW 9.2 mph 16.1 mph 0.01 in   Mostly Cloudy
3:53 PM 35.6 °F 29.2 °F 33.8 °F 93% 30.07 in 10.0 mi NNW 8.1 mph 18.4 mph 0.01 in   Overcast
4:13 PM 35.6 °F 29.9 °F 30.2 °F 81% 30.07 in 10.0 mi WNW 6.9 mph - N/A   Mostly Cloudy
4:33 PM 33.8 °F 24.8 °F 30.2 °F 87% 30.09 in 1.0 mi NNW 12.7 mph 20.7 mph N/A Snow Snow
4:52 PM 32.0 °F 22.1 °F 30.2 °F 93% 30.09 in 0.5 mi NW 13.8 mph 24.2 mph 0.01 in Snow Light Snow
5:13 PM 30.2 °F 20.2 °F 30.2 °F 100% 30.10 in 1.8 mi NW 12.7 mph 21.9 mph 0.01 in Snow Light Snow
5:33 PM 30.2 °F 21.3 °F 28.4 °F 93% 30.12 in 7.0 mi NNW 10.4 mph 24.2 mph 0.01 in Snow Light Snow
5:52 PM 30.2 °F 19.3 °F 28.4 °F 93% 30.13 in 1.8 mi NW 15.0 mph 32.2 mph 0.01 in Snow Light Snow
6:13 PM 28.4 °F 16.6 °F 26.6 °F 93% 30.15 in 1.8 mi NW 16.1 mph 27.6 mph N/A Snow Light Snow
6:33 PM 28.4 °F 15.4 °F 24.8 °F 86% 30.17 in 4.0 mi NNW 19.6 mph 29.9 mph N/A Snow Light Snow
6:52 PM 28.4 °F 17.0 °F 23.0 °F 80% 30.19 in 10.0 mi NNW 15.0 mph 25.3 mph N/A   Overcast
7:13 PM 28.4 °F 19.1 °F 23.0 °F 80% 30.20 in 10.0 mi NNW 10.4 mph 23.0 mph N/A   Overcast
7:32 PM 28.4 °F 18.5 °F 23.0 °F 80% 30.21 in 10.0 mi NNW 11.5 mph 24.2 mph N/A   Overcast
7:53 PM 26.6 °F 18.2 °F 23.0 °F 86% 30.23 in 10.0 mi NNW 8.1 mph 23.0 mph N/A   Overcast
8:13 PM 26.6 °F 16.2 °F 24.8 °F 93% 30.24 in 7.0 mi NNW 11.5 mph 23.0 mph N/A Snow Light Snow
8:33 PM 26.6 °F 16.8 °F 24.8 °F 93% 30.25 in 5.0 mi NNW 10.4 mph 23.0 mph N/A Snow Light Snow
8:53 PM 26.6 °F 15.2 °F 24.8 °F 93% 30.26 in 4.0 mi NNW 13.8 mph 21.9 mph N/A Snow Light Snow
9:12 PM 26.6 °F 13.4 °F 23.0 °F 86% 30.27 in 7.0 mi NNW 18.4 mph 26.5 mph N/A Snow Light Snow
9:33 PM 26.6 °F 16.8 °F 24.8 °F 93% 30.29 in 2.0 mi NNW 10.4 mph 19.6 mph N/A Snow Light Snow
9:53 PM 26.6 °F 16.8 °F 21.2 °F 80% 30.30 in 10.0 mi North 10.4 mph 18.4 mph N/A   Mostly Cloudy
10:12 PM 26.6 °F 17.5 °F 21.2 °F 80% 30.31 in 10.0 mi NNW 9.2 mph 19.6 mph N/A   Mostly Cloudy
10:33 PM 26.6 °F 16.2 °F 19.4 °F 74% 30.32 in 10.0 mi NNW 11.5 mph 27.6 mph N/A   Overcast
10:52 PM 24.8 °F 16.1 °F 19.4 °F 80% 30.33 in 10.0 mi NNW 8.1 mph 19.6 mph N/A   Mostly Cloudy
11:13 PM 24.8 °F 15.3 °F 19.4 °F 80% 30.34 in 10.0 mi NNW 9.2 mph - N/A   Mostly Cloudy
11:33 PM 24.8 °F 16.1 °F 19.4 °F 80% 30.35 in 10.0 mi North 8.1 mph 21.9 mph N/A Snow Light Snow
11:53 PM 24.8 °F 14.6 °F 19.4 °F 80% 30.35 in 10.0 mi North 10.4 mph 19.6 mph N/A   Overcast